Location: Milton Keynes
(52.0316°N, 0.7531°W)
Time: 14:29:03
(UTC+00:00)

ISS - Pass Details

Date: 05 December 2023
Orbit: 414 x 422 km, 51.6° (Epoch: 26 February)

Event Time Altitude Azimuth Distance (km) Brightness Sun altitude
Rises 17:02:03 0° 282° (WNW) 2,411 1.1 -10.0°
Reaches altitude 10° 17:04:26 10° 268° (W) 1,546 0.4 -10.3°
Maximum altitude 17:07:14 23° 214° (SSW) 982 -1.1 -10.7°
Drops below altitude 10° 17:10:03 10° 160° (SSE) 1,552 -0.8 -11.1°
Enters shadow 17:15:21 -9° 138° (SE) 3,563 0.8 -11.9°
